TimeCST,TemperatureF,Dew PointF,Humidity,Sea Level PressureIn,VisibilityMPH,Wind Direction,Wind SpeedMPH,Gust SpeedMPH,PrecipitationIn,Events,Conditions,WindDirDegrees,DateUTC
12:15 AM,71.6,64.4,78,29.82,10.0,WSW,31.1,36.8,N/A,,Clear,240,2014-01-27 06:15:00
12:35 AM,71.6,64.4,78,29.82,10.0,WSW,29.9,-,N/A,,Mostly Cloudy,250,2014-01-27 06:35:00
12:55 AM,71.6,64.4,78,29.82,10.0,WSW,32.2,-,N/A,,Mostly Cloudy,240,2014-01-27 06:55:00
1:15 AM,71.6,64.4,78,29.82,10.0,WSW,31.1,-,N/A,,Partly Cloudy,240,2014-01-27 07:15:00
1:35 AM,71.6,64.4,78,29.81,10.0,WSW,28.8,36.8,N/A,,Clear,240,2014-01-27 07:35:00
1:55 AM,71.6,64.4,78,29.81,10.0,WSW,28.8,36.8,N/A,,Clear,240,2014-01-27 07:55:00
2:15 AM,71.6,64.4,78,29.81,10.0,WSW,28.8,-,N/A,,Partly Cloudy,240,2014-01-27 08:15:00
2:35 AM,71.6,64.4,78,29.81,10.0,WSW,26.5,-,N/A,,Clear,240,2014-01-27 08:35:00
2:55 AM,71.6,64.4,78,29.81,10.0,WSW,23.0,29.9,N/A,,Clear,250,2014-01-27 08:55:00
3:15 AM,71.6,64.4,78,29.81,10.0,WSW,24.2,-,N/A,,Clear,250,2014-01-27 09:15:00
3:35 AM,71.6,64.4,78,29.81,10.0,WSW,26.5,-,N/A,,Partly Cloudy,250,2014-01-27 09:35:00
3:55 AM,71.6,64.4,78,29.81,10.0,WSW,25.3,-,N/A,,Partly Cloudy,250,2014-01-27 09:55:00
4:15 AM,71.6,66.2,83,29.82,10.0,WSW,24.2,33.4,N/A,,Scattered Clouds,250,2014-01-27 10:15:00
4:35 AM,71.6,64.4,78,29.82,10.0,WSW,27.6,-,N/A,,Scattered Clouds,250,2014-01-27 10:35:00
4:55 AM,71.6,64.4,78,29.82,10.0,West,24.2,33.4,N/A,,Mostly Cloudy,260,2014-01-27 10:55:00
5:15 AM,71.6,66.2,83,29.83,10.0,West,23.0,-,N/A,,Scattered Clouds,260,2014-01-27 11:15:00
5:35 AM,71.6,64.4,78,29.84,10.0,West,23.0,28.8,N/A,,Partly Cloudy,260,2014-01-27 11:35:00
5:55 AM,71.6,64.4,78,29.84,10.0,West,24.2,-,N/A,,Partly Cloudy,260,2014-01-27 11:55:00
6:15 AM,71.6,64.4,78,29.85,10.0,WSW,25.3,-,N/A,,Mostly Cloudy,250,2014-01-27 12:15:00
6:35 AM,71.6,66.2,83,29.86,10.0,West,20.7,-,N/A,,Mostly Cloudy,270,2014-01-27 12:35:00
6:55 AM,71.6,66.2,83,29.88,10.0,West,16.1,-,N/A,,Scattered Clouds,270,2014-01-27 12:55:00
7:15 AM,71.6,66.2,83,29.88,9.0,West,18.4,-,N/A,,Clear,270,2014-01-27 13:15:00
7:35 AM,71.6,66.2,83,29.89,9.0,West,17.3,-,N/A,,Partly Cloudy,270,2014-01-27 13:35:00
7:55 AM,71.6,66.2,83,29.90,9.0,West,15.0,50.6,N/A,,Mostly Cloudy,270,2014-01-27 13:55:00
8:15 AM,73.4,66.2,78,29.91,9.0,West,12.7,35.7,N/A,,Mostly Cloudy,280,2014-01-27 14:15:00
8:35 AM,73.4,66.2,78,29.92,9.0,West,11.5,-,N/A,,Overcast,280,2014-01-27 14:35:00
8:55 AM,75.2,66.2,73,29.92,9.0,West,10.4,-,N/A,,Overcast,280,2014-01-27 14:55:00
9:15 AM,75.2,66.2,73,29.94,10.0,West,8.1,-,N/A,,Overcast,270,2014-01-27 15:15:00
9:35 AM,73.4,66.2,78,29.94,9.0,WNW,4.6,-,N/A,,Overcast,290,2014-01-27 15:35:00
9:55 AM,75.2,66.2,73,29.95,9.0,WNW,4.6,-,N/A,,Overcast,300,2014-01-27 15:55:00
10:15 AM,77.0,66.2,69,29.96,10.0,Calm,Calm,-,N/A,,Mostly Cloudy,0,2014-01-27 16:15:00
10:35 AM,82.4,66.2,58,29.96,10.0,Calm,Calm,-,N/A,,Partly Cloudy,0,2014-01-27 16:35:00
10:55 AM,84.2,66.2,55,29.96,10.0,Calm,Calm,-,N/A,,Scattered Clouds,0,2014-01-27 16:55:00
11:15 AM,82.4,66.2,58,29.96,10.0,Calm,Calm,-,N/A,,Overcast,0,2014-01-27 17:15:00
11:35 AM,80.6,66.2,61,29.95,10.0,Calm,Calm,-,N/A,,Overcast,0,2014-01-27 17:35:00
11:55 AM,80.6,66.2,61,29.95,10.0,Calm,Calm,-,N/A,,Overcast,0,2014-01-27 17:55:00
12:15 PM,80.6,66.2,61,29.95,10.0,Calm,Calm,-,N/A,,Overcast,0,2014-01-27 18:15:00
12:35 PM,80.6,66.2,61,29.94,10.0,Calm,Calm,-,N/A,,Overcast,0,2014-01-27 18:35:00
12:55 PM,82.4,66.2,58,29.93,10.0,Calm,Calm,43.7,N/A,,Overcast,0,2014-01-27 18:55:00
1:15 PM,82.4,66.2,58,29.92,10.0,Calm,Calm,-,N/A,,Overcast,0,2014-01-27 19:15:00
1:35 PM,80.6,66.2,61,29.91,10.0,Calm,Calm,-,N/A,,Overcast,0,2014-01-27 19:35:00
1:55 PM,80.6,66.2,61,29.91,10.0,Calm,Calm,-,N/A,,Overcast,0,2014-01-27 19:55:00
2:15 PM,78.8,66.2,65,29.91,9.0,Calm,Calm,-,N/A,,Overcast,0,2014-01-27 20:15:00
2:35 PM,78.8,66.2,65,29.90,9.0,Calm,Calm,-,N/A,,Overcast,0,2014-01-27 20:35:00
2:55 PM,77.0,66.2,69,29.91,9.0,Variable,4.6,13.8,N/A,,Mostly Cloudy,0,2014-01-27 20:55:00
3:15 PM,77.0,66.2,69,29.91,9.0,Variable,4.6,11.5,N/A,,Overcast,0,2014-01-27 21:15:00
3:35 PM,71.6,64.4,78,29.91,6.0,North,17.3,-,N/A,,Haze,10,2014-01-27 21:35:00
3:55 PM,68.0,62.6,83,29.91,3.0,North,13.8,21.9,N/A,,Haze,360,2014-01-27 21:55:00
4:15 PM,66.2,60.8,83,29.92,4.0,North,11.5,21.9,N/A,,Haze,360,2014-01-27 22:15:00
4:35 PM,66.2,60.8,83,29.93,4.0,North,15.0,-,N/A,,Haze,360,2014-01-27 22:35:00
4:55 PM,66.2,60.8,83,29.94,4.0,North,11.5,18.4,N/A,,Haze,10,2014-01-27 22:55:00
5:15 PM,66.2,60.8,83,29.94,5.0,North,11.5,18.4,N/A,,Haze,10,2014-01-27 23:15:00
5:35 PM,66.2,60.8,83,29.95,6.0,North,10.4,18.4,N/A,,Haze,10,2014-01-27 23:35:00
5:55 PM,66.2,59.0,78,29.95,-9999.0,North,13.8,-,N/A,,Overcast,360,2014-01-27 23:55:00
6:15 PM,66.2,59.0,78,29.96,9.0,North,13.8,-,N/A,,Overcast,10,2014-01-28 00:15:00
6:35 PM,66.2,59.0,78,29.96,10.0,North,12.7,20.7,N/A,,Overcast,10,2014-01-28 00:35:00
6:55 PM,66.2,59.0,78,29.96,10.0,North,15.0,20.7,N/A,,Overcast,10,2014-01-28 00:55:00
7:15 PM,66.2,59.0,78,29.98,10.0,North,18.4,-,N/A,,Overcast,360,2014-01-28 01:15:00
7:35 PM,66.2,59.0,78,29.98,10.0,North,16.1,24.2,N/A,,Overcast,360,2014-01-28 01:35:00
7:55 PM,66.2,59.0,78,29.99,10.0,North,16.1,24.2,N/A,,Overcast,360,2014-01-28 01:55:00
8:15 PM,66.2,59.0,78,29.99,8.0,Variable,6.9,17.3,N/A,,Mostly Cloudy,0,2014-01-28 02:15:00
8:35 PM,64.4,59.0,83,30.00,7.0,Variable,6.9,23.0,N/A,,Mostly Cloudy,0,2014-01-28 02:35:00
8:55 PM,64.4,59.0,83,30.00,7.0,NNE,13.8,26.5,N/A,,Mostly Cloudy,20,2014-01-28 02:55:00
9:15 PM,64.4,57.2,77,30.02,7.0,North,16.1,29.9,N/A,,Mostly Cloudy,10,2014-01-28 03:15:00
9:35 PM,62.6,57.2,82,30.02,7.0,North,18.4,26.5,N/A,,Mostly Cloudy,360,2014-01-28 03:35:00
9:55 PM,62.6,57.2,82,30.02,9.0,Variable,10.4,25.3,N/A,,Mostly Cloudy,0,2014-01-28 03:55:00
10:15 PM,62.6,55.4,77,30.03,10.0,Variable,6.9,-,N/A,,Overcast,0,2014-01-28 04:15:00
10:35 PM,62.6,55.4,77,30.02,10.0,ENE,13.8,27.6,N/A,,Overcast,60,2014-01-28 04:35:00
10:55 PM,62.6,55.4,77,30.02,10.0,ENE,9.2,26.5,N/A,,Overcast,60,2014-01-28 04:55:00
11:15 PM,60.8,55.4,82,30.01,10.0,ENE,13.8,24.2,N/A,,Mostly Cloudy,60,2014-01-28 05:15:00
11:35 PM,60.8,55.4,82,30.02,10.0,ENE,8.1,23.0,N/A,,Overcast,60,2014-01-28 05:35:00
11:55 PM,60.8,53.6,77,30.02,10.0,NE,9.2,20.7,N/A,,Overcast,50,2014-01-28 05:55:00